Location: Weatherford
(35.5260°N, 98.7070°W)
Time: 09:03:46
(UTC-05:00)

Amateur Radio Satellites - All Passes

Search period start: 02 September 2014 08:33
Search period end: 03 September 2014 08:33
Location: Weatherford, 35.5260°N, 98.7070°W

Satellite Date Start Highest point End Downlink Frequencies (MHz)
Time Altitude Azimuth
Hamsat 02 Sep 08:38:13 08:40:55 16° 292° (WNW) 08:43:36 145.90 MHz
ISS 02 Sep 08:46:06 08:46:50 11° 126° (SE) 08:47:35 145.800 FM
JAS-2 02 Sep 09:02:23 09:05:53 18° 294° (WNW) 09:09:32 435.800 - 435.900 CW/SSB, 435.910 FM
HO-68 02 Sep 09:08:32 09:11:51 14° 91° (E) 09:15:10 435.675 MHz FM
SO-67 02 Sep 09:13:17 09:16:23 31° 286° (WNW) 09:19:28 435.3500 MHz FM
Saudisat 1A 02 Sep 09:31:48 09:32:51 11° 253° (WSW) 09:33:53 436.775 MHz
KITSAT 1 02 Sep 10:09:34 10:17:16 50° 250° (WSW) 10:24:55 435.175 FM
ISS 02 Sep 10:19:53 10:23:09 60° 320° (NW) 10:26:27 145.800 FM
PANSAT 02 Sep 10:26:51 10:28:39 13° 160° (SSE) 10:30:27 not established
UKube-1 02 Sep 10:35:54 10:39:57 37° 99° (E) 10:43:58 145.840 MHz, 145.915 MHz
Oscar 11 02 Sep 10:39:21 10:43:03 27° 96° (E) 10:46:43 145.825 FM, Beacon 2401.500 USB
RS-15 02 Sep 10:48:08 10:56:30 24° 324° (NW) 11:04:53 29.354 - 29.394 USB, Beacon 29.352 USB
HO-68 02 Sep 10:53:05 11:00:16 87° 286° (WNW) 11:07:27 435.675 MHz FM
FUNcube-1 02 Sep 11:12:37 11:16:26 26° 96° (E) 11:20:15 145.950 - 145.970 MHz USB
MaSat-1 02 Sep 11:57:16 11:57:28 10° 98° (E) 11:57:40 437.345 MHz
ISS 02 Sep 11:59:41 12:00:28 11° 337° (NNW) 12:01:15 145.800 FM
PANSAT 02 Sep 12:05:03 12:08:17 25° 172° (S) 12:11:31 not established
UKube-1 02 Sep 12:13:04 12:15:49 17° 293° (WNW) 12:18:34 145.840 MHz, 145.915 MHz
Oscar 11 02 Sep 12:15:40 12:19:04 23° 291° (WNW) 12:22:28 145.825 FM, Beacon 2401.500 USB
SO-50 02 Sep 12:34:19 12:38:54 43° 56° (NE) 12:43:31 436.795 FM
HO-68 02 Sep 12:43:16 12:46:57 15° 303° (WNW) 12:50:38 435.675 MHz FM
FUNcube-1 02 Sep 12:48:54 12:52:42 26° 290° (WNW) 12:56:32 145.950 - 145.970 MHz USB
Oscar 19 02 Sep 12:59:08 13:00:59 12° 62° (ENE) 13:02:50 437.125 CW, 437.150 USB
RS-15 02 Sep 13:11:23 13:14:58 12° 1° (N) 13:18:35 29.354 - 29.394 USB, Beacon 29.352 USB
JAS-1B 02 Sep 13:16:52 13:22:43 19° 59° (ENE) 13:28:11 435.800 - 435.900 CW/SSB
MaSat-1 02 Sep 13:28:48 13:33:38 79° 294° (WNW) 13:38:48 437.345 MHz
Oscar 16 02 Sep 13:31:45 13:36:00 27° 68° (ENE) 13:40:17 437.025 USB, Beacon 2401.1428
ITAMSAT 1 02 Sep 13:37:58 13:39:57 12° 62° (ENE) 13:41:57 435.822 SSB
PANSAT 02 Sep 13:44:44 13:48:02 27° 185° (S) 13:51:20 not established
Uribyol 2 02 Sep 13:45:57 13:49:01 16° 64° (ENE) 13:52:04 436.500 FM
AO-27 02 Sep 14:05:24 14:09:28 24° 67° (ENE) 14:13:33 436.795 MHz FM
SO-50 02 Sep 14:15:45 14:19:09 19° 250° (WSW) 14:22:33 436.795 FM
UOSAT-12 02 Sep 14:18:00 14:22:24 37° 55° (NE) 14:26:44 437.025 FM, 437.400 FM
Oscar 19 02 Sep 14:34:28 14:39:37 76° 258° (WSW) 14:44:49 437.125 CW, 437.150 USB
AO-Echo 02 Sep 14:38:46 14:43:40 55° 74° (ENE) 14:48:26 ?
Gurwin Techsat 1B 02 Sep 14:49:43 14:54:11 28° 68° (ENE) 14:58:39 435.225 FM
JAS-1B 02 Sep 15:02:21 15:12:11 84° 74° (ENE) 15:21:01 435.800 - 435.900 CW/SSB
Oscar 16 02 Sep 15:10:39 15:15:12 31° 263° (W) 15:19:47 437.025 USB, Beacon 2401.1428
MaSat-1 02 Sep 15:10:42 15:11:29 10° 311° (NW) 15:12:17 437.345 MHz
ITAMSAT 1 02 Sep 15:13:38 15:18:46 73° 257° (WSW) 15:23:57 435.822 SSB
Uribyol 2 02 Sep 15:22:58 15:27:59 55° 259° (W) 15:33:03 436.500 FM
RS-15 02 Sep 15:24:36 15:33:20 26° 37° (NE) 15:42:13 29.354 - 29.394 USB, Beacon 29.352 USB
PANSAT 02 Sep 15:25:24 15:27:42 15° 198° (SSW) 15:29:59 not established
AO-7 02 Sep 15:33:55 15:40:07 24° 58° (ENE) 15:46:19 29.400 - 29.500 MHz
TMSAT-1 02 Sep 15:38:25 15:43:36 61° 74° (ENE) 15:48:49 436.925 FM
AO-27 02 Sep 15:44:03 15:48:45 35° 262° (W) 15:53:29 436.795 MHz FM
Sapphire 02 Sep 15:48:04 15:51:09 16° 104° (ESE) 15:54:14 437.095 MHz 1200 baud AX-25 AFSK
UOSAT-12 02 Sep 15:58:47 16:02:17 21° 250° (WSW) 16:05:44 437.025 FM, 437.400 FM
PCSat 02 Sep 16:15:17 16:20:00 32° 108° (ESE) 16:24:45 145.825 MHz
AO-Echo 02 Sep 16:20:13 16:22:40 14° 267° (W) 16:25:07 ?
Gurwin Techsat 1B 02 Sep 16:29:22 16:34:00 31° 263° (W) 16:38:41 435.225 FM
ISS 02 Sep 16:51:12 16:54:21 39° 37° (NE) 16:57:30 145.800 FM
JAS-1B 02 Sep 16:56:20 17:03:06 21° 268° (W) 17:09:31 435.800 - 435.900 CW/SSB
OPAL 02 Sep 17:08:39 17:12:14 19° 96° (E) 17:15:47 ?
Uosat F 02 Sep 17:10:15 17:15:15 89° 74° (ENE) 17:20:17 435.120 FM
TMSAT-1 02 Sep 17:21:15 17:23:52 14° 268° (W) 17:26:30 436.925 FM
AO-7 02 Sep 17:23:48 17:32:07 72° 255° (WSW) 17:40:27 29.400 - 29.500 MHz
JAS-2 02 Sep 17:27:50 17:31:06 15° 65° (ENE) 17:34:13 435.800 - 435.900 CW/SSB, 435.910 FM
Sapphire 02 Sep 17:28:41 17:34:00 59° 299° (WNW) 17:39:22 437.095 MHz 1200 baud AX-25 AFSK
RS-15 02 Sep 17:36:12 17:47:24 86° 61° (ENE) 17:59:04 29.354 - 29.394 USB, Beacon 29.352 USB
Hamsat 02 Sep 17:52:25 17:55:30 19° 69° (ENE) 17:58:36 145.90 MHz
PCSat 02 Sep 17:58:35 18:03:20 31° 304° (NW) 18:08:08 145.825 MHz
ISS 02 Sep 18:28:39 18:30:51 17° 232° (SW) 18:33:02 145.800 FM
OPAL 02 Sep 18:46:18 18:51:17 46° 290° (WNW) 18:56:12 ?
JAS-2 02 Sep 19:09:39 19:15:47 64° 258° (WSW) 19:21:17 435.800 - 435.900 CW/SSB, 435.910 FM
AO-7 02 Sep 19:25:32 19:26:04 10° 271° (W) 19:26:36 29.400 - 29.500 MHz
Hamsat 02 Sep 19:27:22 19:31:12 31° 263° (W) 19:35:05 145.90 MHz
SO-67 02 Sep 19:42:56 19:46:15 44° 75° (ENE) 19:49:34 435.3500 MHz FM
RS-15 02 Sep 19:50:53 19:58:24 21° 259° (WSW) 20:06:09 29.354 - 29.394 USB, Beacon 29.352 USB
STRAND 1 02 Sep 20:35:09 20:40:16 78° 285° (WNW) 20:45:21 ?
HO-68 02 Sep 21:18:06 21:24:57 52° 69° (ENE) 21:31:49 435.675 MHz FM
UKube-1 02 Sep 21:29:05 21:32:29 23° 69° (ENE) 21:35:54 145.840 MHz, 145.915 MHz
Oscar 11 02 Sep 21:32:40 21:35:12 15° 67° (ENE) 21:37:45 145.825 FM, Beacon 2401.500 USB
MaSat-1 02 Sep 21:51:56 21:53:18 11° 49° (NE) 21:54:37 437.345 MHz
Saudisat 1A 02 Sep 21:53:23 21:57:17 32° 113° (ESE) 22:01:14 436.775 MHz
FUNcube-1 02 Sep 22:07:54 22:10:01 14° 66° (ENE) 22:12:09 145.950 - 145.970 MHz USB
KITSAT 1 02 Sep 22:39:41 22:46:42 34° 107° (ESE) 22:53:43 435.175 FM
UKube-1 02 Sep 23:04:54 23:08:32 26° 263° (W) 23:12:11 145.840 MHz, 145.915 MHz
Oscar 11 02 Sep 23:06:57 23:11:01 40° 261° (W) 23:15:08 145.825 FM, Beacon 2401.500 USB
HO-68 02 Sep 23:07:09 23:12:52 26° 264° (W) 23:18:37 435.675 MHz FM
MaSat-1 02 Sep 23:26:38 23:30:54 61° 250° (WSW) 23:34:32 437.345 MHz
Saudisat 1A 02 Sep 23:33:23 23:36:53 23° 309° (NW) 23:40:26 436.775 MHz
FUNcube-1 02 Sep 23:42:01 23:45:59 43° 261° (W) 23:50:03 145.950 - 145.970 MHz USB
KITSAT 1 03 Sep 00:34:01 00:41:47 49° 304° (NW) 00:49:35 435.175 FM
PCSat 03 Sep 01:06:54 01:10:08 16° 49° (NE) 01:13:21 145.825 MHz
Oscar 16 03 Sep 01:48:30 01:50:07 11° 91° (E) 01:51:43 437.025 USB, Beacon 2401.1428
Sapphire 03 Sep 02:19:37 02:24:58 58° 61° (ENE) 02:30:17 437.095 MHz 1200 baud AX-25 AFSK
KITSAT 1 03 Sep 02:36:49 02:39:24 12° 328° (NNW) 02:41:59 435.175 FM
AO-40 03 Sep 02:37:16 03:45:35 16° 238° (WSW) 05:34:43 Beacon 2401.320
SO-50 03 Sep 02:47:10 02:50:52 26° 111° (ESE) 02:54:38 436.795 FM
PCSat 03 Sep 02:48:41 02:54:06 73° 246° (WSW) 02:59:28 145.825 MHz
Oscar 19 03 Sep 02:49:17 02:54:20 50° 100° (E) 02:59:19 437.125 CW, 437.150 USB
AO-Echo 03 Sep 02:49:44 02:53:17 21° 95° (E) 02:56:52 ?
JAS-1B 03 Sep 02:54:53 02:59:36 22° 92° (E) 03:03:58 435.800 - 435.900 CW/SSB
Gurwin Techsat 1B 03 Sep 03:10:11 03:12:51 14° 92° (E) 03:15:30 435.225 FM
Oscar 16 03 Sep 03:24:43 03:29:54 70° 285° (WNW) 03:35:02 437.025 USB, Beacon 2401.1428
ITAMSAT 1 03 Sep 03:29:38 03:34:41 51° 100° (E) 03:39:43 435.822 SSB
Uribyol 2 03 Sep 03:38:34 03:43:46 68° 102° (ESE) 03:48:57 436.500 FM
TMSAT-1 03 Sep 03:57:43 04:02:23 31° 97° (E) 04:07:01 436.925 FM
AO-27 03 Sep 03:59:33 04:04:45 78° 285° (WNW) 04:09:56 436.795 MHz FM
Sapphire 03 Sep 04:04:38 04:07:51 16° 256° (WSW) 04:11:03 437.095 MHz 1200 baud AX-25 AFSK
OPAL 03 Sep 04:20:35 04:24:36 24° 65° (ENE) 04:28:41 ?
UOSAT-12 03 Sep 04:27:09 04:30:39 22° 110° (ESE) 04:34:12 437.025 FM, 437.400 FM
SO-50 03 Sep 04:27:27 04:31:18 28° 308° (NW) 04:35:15 436.795 FM
AO-Echo 03 Sep 04:27:55 04:32:05 33° 289° (WNW) 04:36:18 ?
Oscar 19 03 Sep 04:29:50 04:33:13 18° 295° (WNW) 04:36:36 437.125 CW, 437.150 USB
JAS-1B 03 Sep 04:44:37 04:50:35 42° 292° (WNW) 04:55:57 435.800 - 435.900 CW/SSB
Gurwin Techsat 1B 03 Sep 04:47:56 04:53:10 61° 286° (WNW) 04:58:23 435.225 FM
ITAMSAT 1 03 Sep 05:10:26 05:13:44 17° 295° (WNW) 05:17:01 435.822 SSB
Uribyol 2 03 Sep 05:20:14 05:22:37 13° 297° (WNW) 05:25:00 436.500 FM
Uosat F 03 Sep 05:21:19 05:25:53 35° 98° (E) 05:30:25 435.120 FM
AO-7 03 Sep 05:28:58 05:36:55 48° 101° (ESE) 05:44:48 29.400 - 29.500 MHz
TMSAT-1 03 Sep 05:37:42 05:42:10 28° 291° (WNW) 05:46:37 436.925 FM
RS-15 03 Sep 05:50:59 05:55:50 14° 98° (E) 06:00:37 29.354 - 29.394 USB, Beacon 29.352 USB
OPAL 03 Sep 05:58:39 06:03:15 35° 260° (W) 06:07:57 ?
UOSAT-12 03 Sep 06:06:19 06:10:33 35° 306° (NW) 06:14:52 437.025 FM, 437.400 FM
STRAND 1 03 Sep 06:12:53 06:14:38 12° 62° (ENE) 06:16:24 ?
JAS-2 03 Sep 06:22:33 06:25:52 16° 95° (E) 06:29:20 435.800 - 435.900 CW/SSB, 435.910 FM
Saudisat 1A 03 Sep 06:23:56 06:26:10 14° 46° (NE) 06:28:22 436.775 MHz
KITSAT 1 03 Sep 06:37:42 06:40:30 12° 33° (NNE) 06:43:17 435.175 FM
Uosat F 03 Sep 07:00:33 07:04:26 23° 293° (WNW) 07:08:19 435.120 FM
Hamsat 03 Sep 07:15:39 07:19:55 56° 100° (E) 07:24:07 145.90 MHz
AO-7 03 Sep 07:22:11 07:29:23 35° 298° (WNW) 07:36:35 29.400 - 29.500 MHz
STRAND 1 03 Sep 07:48:05 07:53:09 74° 257° (WSW) 07:58:15 ?
RS-15 03 Sep 07:55:13 08:06:20 78° 116° (ESE) 08:17:13 29.354 - 29.394 USB, Beacon 29.352 USB
Saudisat 1A 03 Sep 08:01:47 08:06:10 65° 243° (WSW) 08:10:30 436.775 MHz
JAS-2 03 Sep 08:05:55 08:11:09 55° 286° (WNW) 08:16:54 435.800 - 435.900 CW/SSB, 435.910 FM
